www.pogodaiklimat.ru

Погода и климат >> Архив погоды >> Казахстан >> Анкаты


ПОГОДА в Анкаты

  • Прогноз погоды в Анкаты
  • Монитор погоды в Анкаты
  • Климат города

АРХИВ ПОГОДЫ в Анкаты

Время (UTC), дата Ветер
(напр.,м/с)
 
Видим.   Явления Облачность Т
(С)
Тd
(С)
f
(%)
Тe
(С)
Тes
(С)
Комфортность P
(гПа)
Po
(гПа)
Тmin
(С)
Tmax
(С)
R
(мм)
R24
(мм)
S
(см)
03 15.10 Ю 4 6000 м н/о +8.5 -34.4 3 +7 +7 1011.1 1007.8 <0.5
06 15.10 ЮЗ 5 17 км н/о +9.4 -33.8 3 +7 +7 1010.9 1007.6 4
09 15.10 Ю 5 20 км н/о +11.8 -32.2 3 +10 +10 1009.7 1006.4
12 15.10 Ю 5 20 км н/о +13.2 -31.2 3 +12 +12 1007.5 1004.3
15 15.10 Ю 3 20 км н/о +10.8 -32.8 3 +10 +10 1006.2 1002.9 +13.2
18 15.10 ЮВ 3 16 км н/о +7.8 -34.9 3 +6 +6 1004.0 1000.7 +13.2
21 15.10 ЮВ 4 5000 м н/о +8.2 -34.6 3 +6 +6 1001.5 998.2
00 16.10 ЮВ 4 7000 м н/о +8.2 -34.6 3 +6 +6 999.6 996.3
03 16.10 Ю 3 5000 м н/о +7.8 -34.9 3 +6 +6 998.4 995.1 <0.5
06 16.10 Ю 6 10 км н/о +7.2 -35.3 3 +4 +4 999.2 995.9 1
09 16.10 Ю 3 20 км н/о +8.3 -34.6 3 +7 +7 999.1 995.8
12 16.10 В 1 20 км н/о +8.7 -34.3 3 +9 +9 999.6 996.3
15 16.10 СВ 1 18 км н/о +7.3 -35.3 3 +8 +8 1000.1 996.8 +8.7
18 16.10 СЗ 4 6000 м н/о +6.7 -35.7 3 +4 +4 999.9 996.6 +8.7 4
21 16.10 З 4 5000 м ?/? +6.7 -35.7 3 +4 +4 999.9 996.6
00 17.10 З 3 7000 м н/о +6.8 -35.6 3 +5 +5 1000.6 997.3
03 17.10 З 3 3200 м н/о +6.5 -35.8 3 +5 +5 1001.3 998.0 <0.5
06 17.10 ЮЗ 2 20 км н/о +7.5 -35.1 3 +7 +7 1002.7 999.4 7
09 17.10 Ю 1 20 км н/о +9.7 -33.6 3 +10 +10 1003.7 1000.4
12 17.10 В 1 20 км н/о +8.8 -34.2 3 +9 +9 1005.2 1001.9
15 17.10 В 1 14 км н/о +7.9 -34.8 3 +8 +8 1006.9 1003.6 +9.7
18 17.10 штиль 0 19 км н/о +7.1 -35.4 3 +8 +8 1007.6 1004.3 +9.7
21 17.10 З 3 14 км н/о +6.1 -36.1 3 +4 +4 1008.2 1004.9
00 18.10 СЗ 3 8000 м н/о +7.6 -35.0 3 +6 +6 1009.8 1006.5
03 18.10 СЗ 5 17 км ясно +4.6 -37.1 3 +1 +1 1012.1 1008.8 <0.5
06 18.10 СЗ 7 20 км ясно +8.4 -34.5 3 +5 +6 1014.2 1010.9
09 18.10 З 5 20 км н/о +11.2 -32.6 3 +9 +9 1014.8 1011.5
15 18.10 ЮЗ 4 20 км н/о +9.0 -34.1 3 +7 +7 1014.5 1011.2 +11.7
18 18.10 ЮЗ 6 20 км н/о +9.4 -33.8 3 +7 +7 1012.9 1009.6 +11.7
21 18.10 ЮЗ 7 20 км н/о +8.7 -34.3 3 +6 +6 1011.5 1008.2
00 19.10 ЮЗ 7 20 км н/о +8.7 -34.3 3 +6 +6 1010.5 1007.2
03 19.10 ЮЗ 6 12 км н/о +8.4 -34.5 3 +6 +6 1010.6 1007.3 <0.5
06 19.10 ЮЗ 7 15 км н/о +10.5 -33.0 3 +8 +8 1011.6 1008.3 0.2
09 19.10 ЮЗ 9 20 км ясно +14.9 -30.0 3 +13 +14 1011.2 1008.0
12 19.10 З 6 20 км н/о +16.6 -28.9 3 +16 +16 1011.1 1007.9
15 19.10 З 5 16 км н/о +14.1 -30.6 3 +13 +13 1012.6 1009.4 +16.6
18 19.10 З 5 13 км н/о +12.7 -31.5 3 +11 +11 1013.6 1010.3 +16.6
21 19.10 СЗ 3 9000 м н/о +9.8 -33.5 3 +9 +9 1014.2 1010.9
00 20.10 С 3 11 км н/о +5.5 -36.5 3 +4 +4 1014.8 1011.5
03 20.10 С 1 15 км н/о +4.1 -37.5 3 +4 +4 1015.8 1012.4 <0.5
06 20.10 С 2 20 км ясно +7.1 -35.4 3 +6 +9 1016.6 1013.3
09 20.10 СЗ 4 20 км ясно +11.6 -32.3 3 +10 +13 1016.2 1012.9
12 20.10 СЗ 5 20 км ясно +10.8 -32.8 3 +9 +9 1016.3 1013.0
15 20.10 СЗ 3 20 км ясно +12.0
18 20.10 З 2 20 км ясно +12.0
21 20.10 З 2 20 км ясно
00 21.10 З 2 20 км ясно
03 21.10 З 1 20 км н/о <0.5
06 21.10 З 2 20 км н/о
09 21.10 З 4 20 км н/о +7.9 -34.8 3 +6 +6 1016.4 1013.1
12 21.10 З 6 20 км н/о +7.9 -34.8 3 +5 +5 1015.7 1012.4
15 21.10 С 1 10 км н/о +8.4
18 21.10 СЗ 2 18 км ясно +8.4
21 21.10 СЗ 1 3200 м ясно

 

Местоположение метеостанции Анкаты (Западно-Казахстанская область, Казахстан): широта 50.83 долгота 52.00 высота над уровнем моря 25 м.

В архиве по умолчанию представлена погода в Анкаты за последнюю неделю. Архивные данные за месяц целиком и за предыдущие месяцы, начиная с января 2011 года, Вы можете получить, выбрав интересующий диапазон дат из раскрывающегося списка и нажав кнопку "Ввод!".

Внимание! Время в таблицах - всемирное. Для получения местного времени необходимо прибавить поправку, которая в Анкаты равна 5 ч.

Смотрите также архив погоды в соседних городах и на ближайших метеорологических станциях:

Погода в Уральске (Западно-Казахстанская область, Казахстан) (69 км)
Погода в Джамбейты (Западно-Казахстанская область, Казахстан) (76 км)
Погода в Аксае (Западно-Казахстанская область, Казахстан) (80 км)
Погода в Январцево (Западно-Казахстанская область, Казахстан) (87 км)
Погода в Чапаево (Западно-Казахстанская область, Казахстан) (91 км)
Погода в Первомайском (Оренбургская область, Россия) (121 км)
Погода в Каменке (Западно-Казахстанская область, Казахстан) (122 км)
Погода в Илеке (Оренбургская область, Россия) (123 км)
Погода в Чингирлау (Западно-Казахстанская область, Казахстан) (150 км)
Погода в Перелюбе (Саратовская область, Россия) (164 км)

Пояснения к столбцам:

Ветер - указаны скорость ветра в м/с - средняя за 10 мин, порывы в срок и между сроками (в фигурных скобках) и направление, откуда дует ветер: С - северный, СВ - северо-восточный, В - восточный, ЮВ - юго-восточный, Ю - южный, ЮЗ - юго-западный, З - западный, СЗ - северо-западный.
Видимость - горизонтальная дальность видимости в метрах или километрах. При видимости от 1 до 10 км при отсутствии осадков обычно наблюдается дымка, при ухудшении видимости до 1 км и менее - туман. В сухую погоду видимость может ухудшаться дымом, пылью или мглою.
Явления - указаны атмосферные явления, наблюдавшиеся в срок или в последний час перед сроком; фигурными скобками обозначены явления, наблюдавшиеся между сроками (за 1-3 часа до срока); квадратными скобками обозначены град или гололедные отложения с указанием их диаметра в мм.
Облачность - указаны через наклонную черту общая и нижняя облачность в баллах и высота нижней границы облаков в метрах; квадратными скобками обозначены формы облаков: Ci - перистые, Cs - перисто-слоистые, Cc - перисто-кучевые, Ac - высококучевые, As - высокослоистые, Sc - слоисто-кучевые, Ns - слоисто-дождевые, Cu - кучевые, Cb - кучево-дождевые. Подробнее классификацию облаков см. в Атласе облаков (PDF).
T - Температура воздуха - температура, измеренная на высоте 2 м над землей.
Td - Температура точки росы - температура, при понижении до которой содержащийся в воздухе водяной пар достигнет насыщения.
f - Относительная влажность воздуха - влажноcть воздуха, измеренная на высоте 2 м над землей.
Te - Эффективная температура - температура, которую ощущает одетый по сезону человек в тени. Характеристика душности погоды. При расчете учитывается влияние влажности воздуха и скорости ветра на теплоощущения человека.
Tes - Эффективная температура на солнце - температура, которую ощущает человек, с поправкой на солнечный нагрев. Характеристика знойности погоды. Зависит от высоты солнца над горизонтом, облачности и скорости ветра. Ночью, в пасмурную погоду, а также при ветре 12 м/с и более поправка равна нулю.
P - Атмосферное давление - приведенное к уровню моря атмосферное давление.
Po - Атмосферное давление - измеренное на уровне метеостанции атмосферное давление.
Tmin - Минимальная температура - минимум температуры воздуха на высоте 2 м над землей.
Tmax - Максимальная температура - максимум температуры воздуха на высоте 2 м над землей.
R - Количество осадков - Количество выпавших осадков за период времени, мм. При наведении курсора мыши на число - период времени, за который выпало указанное количество осадков.
R24 - Количество осадков - Количество выпавших осадков за 24 часа, мм.
S - Снежный покров - Высота снежного покрова, см. При наведении курсора мыши на число - состояние снежного покрова и степень покрытия местности в баллах.